Location: Unspecified
(0.0000°N, 0.0000°E)
Time: 12:00:40
(UTC+00:00)

Envisat - Pass Details

Date: 07 October 2022
Orbit: 763 x 765 km, 98.2° (Epoch: 08 December)

Event Time Altitude Azimuth Distance (km) Brightness Sun altitude
Rises 05:01:37 0° 337° (NNW) 3,215 5.9 -11.5°
Reaches altitude 10° 05:05:09 10° 310° (NW) 2,293 5.0 -10.6°
Maximum altitude 05:07:29 13° 283° (WNW) 2,077 4.6 -10.1°
Drops below altitude 10° 05:09:48 10° 255° (WSW) 2,297 4.9 -9.5°
Sets 05:13:23 0° 228° (SW) 3,226 5.8 -8.6°
